Showing default

KUIPER-00060, 64520

Orbit data source: Space-Track

KUIPER-00060, 64520 is a payload satellite owned by Kuiper Systems (US) in LEO that was launched on Mon, 23 Jun 2025 UTC via an ATLAS V 551 launch vehicle from the Air Force Eastern Test Range (AFETR). Payload-class satellites include a variety of spacecraft equipped with specific instruments for various scientific and technological missions. These include communications satellites like Starlink; space stations such as the ISS; scientific satellites like the Hubble; Earth observation satellites from companies like Planet Labs, Umbra, and HawkEye 360; GPS; miniature CubeSats for education and research; and military/defense satellites.

Loading next visibility...
Identifier
64520, 2025-134W
Orbit
LEO
Country
Flag of USUS
Related business
Manufacturer
Kuiper Systems
Mission
Operational Commercial Communications
Bus & Motor
KUIPER, Unknown motor
Mass
~490 kg wet, ~490 kg dry
Launch date (UTC)
2025-06-23 (1 year ago)
Launch vehicle
ATLAS V 551
Launch site
Air Force Eastern Test Range (AFETR)
Object type
Payload
Rocket body
Debris
Shape & HBR
Box + 2 Pan, 3.4 m
Radar Cross Section
2.326 m², Large (>1 m²)

Expand to show TLE details & history
Last TLE update: 13 hours ago

TLE from 13 hours ago
0 KUIPER-00060
1 64520U 25134W   26171.32287705  .00009622  00000-0  12884-2 0  9997
2 64520  51.9022 126.7968 0000692 147.6526 212.4479 14.79963279 55438
Epoch: 2026-06-20T07:44Z
TLE epoch observation values (Epoch: 2026-06-20T07:44:56.577Z)
Latitude
Longitude
102.02191°
Altitude
630.596 km
Speed
7.544 km/s
True Right ascension
08h 27m 11s
True Declination
0° 00' 00"
Sunlit
Object was in daylight at epoch
Visualization orbit readout
Latitude
Unknown
Longitude
Unknown
Altitude
Unknown
Speed
Unknown
Apparent Right ascension
Unknown
Apparent Declination
Unknown
Sunlit
N/A
Visualization observer readout
Local Sidereal Time
07:12:02
Azimuth
Unknown
Elevation
Unknown
Doppler factor
Unknown
Orbital elements
Apogee altitude
630.376 km
Perigee altitude
629.406 km
Semi-major axis
7,008.028 km
Eccentricity
0.00007
Inclination
51.9022°
RAAN
126.7968°
Arg. of periapsis
147.6526°
True anomaly
212.44365°
Mean anomaly
212.4479°
Eccentric anomaly
212.44577°
Mean motion
3.69955 °/min
Orbital period
97.31 mins
BSTAR
0.0012884
Loading maneuver chart data...
Computing Atmospheric mass density...
Loading historical data...
Loading historical data...
Loading historical data...
Loading historical data...
Loading historical data...
Loading historical data...
Loading historical data...

Documentation

Showing up to 5 results
|